Moab, UT

2:58 AM MST on December 13, 2019 (GMT -0700)
Canyonlands

Weather History for KCNY - June, 2019

Change the Weather History Date:

Saturday, June 8, 2019

  Actual Average Record
Temperature  
Mean Temperature 69 °F 70 °F  
Max Temperature 80 °F 88 °F 104 °F (1985)
Min Temperature 58 °F 53 °F 39 °F (1950)
Degree Days  
Heating Degree Days 0 1  
Month to date heating degree days 0 10  
Since 1 June heating degree days 0 10  
Since 1 July heating degree days 5803 5570  
Cooling Degree Days 4 6  
Month to date cooling degree days 56 44  
Year to date cooling degree days 71 108  
Since 1 June cooling degree days 56 44  
Growing Degree Days 19 (Base 50)    
Moisture  
Dew Point 29 °F    
Average Humidity 24    
Maximum Humidity 32    
Minimum Humidity 16    
Precipitation  
Precipitation 0.00 in 0.01 in 0.32 in (1969)
Month to date precipitation T 0.13  
Year to date precipitation 5.98 3.33  
Sea Level Pressure  
Sea Level Pressure 29.82 in    
Wind  
Wind Speed 16 mph (West)    
Max Wind Speed 26 mph    
Max Gust Speed 35 mph    
Visibility 10 miles    
Events      
T = Trace of Precipitation, MM = Missing Value Source: NWS Daily Summary

Daily Weather History Graph

Daily Weather History Graph

Search for Another Location

Airport or City:

Astronomy

Jun. 08, 2019 Rise Set
Actual Time 5:54 AM MDT 8:42 PM MDT
Civil Twilight 5:22 AM MDT 9:14 PM MDT
Nautical Twilight 4:42 AM MDT 9:53 PM MDT
Astronomical Twilight 3:57 AM MDT 10:39 PM MDT
Moon 11:24 AM MDT (6/8) 12:47 AM MDT (6/8)
Length of Visible Light 15h 51m
Length of Day
14h 48m
Waxing Crescent, 33% of the Moon is Illuminated
Jun 8
Waxing Crescent
Jun 10
First Quarter
Jun 17
Full
Jun 25
Last Quarter
Jul 2
New

Hourly Weather History & Observations

Time (MDT) Temp. Dew Point Humidity Pressure Visibility Wind Dir Wind Speed Gust Speed Precip Events Conditions
12:53 AM 75.0 °F 32.0 °F 21% 29.60 in 10.0 mi WSW 15.0 mph - N/A   Clear
1:53 AM 70.0 °F 30.0 °F 23% 29.62 in 10.0 mi SW 8.1 mph - N/A   Clear
2:53 AM 64.9 °F 32.0 °F 29% 29.64 in 10.0 mi SSW 8.1 mph - N/A   Clear
3:53 AM 64.9 °F 30.9 °F 28% 29.65 in 10.0 mi SSW 10.4 mph - N/A   Clear
4:53 AM 61.0 °F 30.9 °F 32% 29.68 in 10.0 mi SW 6.9 mph - N/A   Clear
5:53 AM 60.1 °F 30.9 °F 33% 29.70 in 10.0 mi SW 9.2 mph - N/A   Clear
6:28 AM 64.9 °F 32.0 °F 29% 29.90 in 10.0 mi WNW 17.3 mph - N/A   Clear
6:53 AM 66.0 °F 34.0 °F 30% 29.74 in 10.0 mi West 18.4 mph - N/A   Clear
7:53 AM 66.9 °F 35.1 °F 31% 29.78 in 10.0 mi WNW 20.7 mph 29.9 mph N/A   Clear
8:53 AM 66.9 °F 34.0 °F 30% 29.83 in 10.0 mi WNW 23.0 mph 33.4 mph N/A   Clear
9:53 AM 69.1 °F 34.0 °F 27% 29.84 in 10.0 mi WNW 17.3 mph - N/A   Clear
10:53 AM 71.1 °F 32.0 °F 24% 29.86 in 10.0 mi West 13.8 mph 23.0 mph N/A   Clear
11:53 AM 73.0 °F 30.0 °F 20% 29.86 in 10.0 mi West 17.3 mph 26.5 mph N/A   Clear
12:53 PM 75.0 °F 28.9 °F 18% 29.85 in 10.0 mi West 17.3 mph 24.2 mph N/A   Clear
1:53 PM 77.0 °F 28.9 °F 17% 29.85 in 10.0 mi WNW 18.4 mph 27.6 mph N/A   Clear
2:53 PM 78.1 °F 30.0 °F 17% 29.85 in 10.0 mi WNW 13.8 mph 23.0 mph N/A   Clear
3:53 PM 78.1 °F 30.9 °F 18% 29.84 in 10.0 mi WNW 15.0 mph 25.3 mph N/A   Clear
4:53 PM 78.1 °F 30.0 °F 17% 29.85 in 10.0 mi WNW 17.3 mph 23.0 mph N/A   Clear
5:53 PM 78.1 °F 28.9 °F 17% 29.85 in 10.0 mi NW 15.0 mph - N/A   Clear
6:53 PM 75.9 °F 28.0 °F 17% 29.84 in 10.0 mi WNW 15.0 mph 28.8 mph N/A   Clear
7:53 PM 73.0 °F 27.0 °F 18% 29.87 in 10.0 mi NW 20.7 mph 28.8 mph N/A   Clear
8:53 PM 69.1 °F 21.9 °F 17% 29.92 in 10.0 mi NW 18.4 mph - N/A   Clear
9:53 PM 64.9 °F 19.9 °F 18% 29.97 in 10.0 mi WNW 21.9 mph - N/A   Clear
10:53 PM 62.1 °F 19.9 °F 20% 30.04 in 10.0 mi WNW 21.9 mph 34.5 mph N/A   Clear
11:53 PM 60.1 °F 17.1 °F 19% 30.08 in 10.0 mi WNW 23.0 mph 34.5 mph N/A   Clear